Location: Newark
(52.4787°S, 179.0532°W)
Time: 09:24:07
(UTC+00:00)

Tiros 1 despin weight - Visible Passes

Search period start: 21 November 2019 00:00
Search period end: 01 December 2019 00:00
Orbit: 594 x 642 km, 48.2° (Epoch: 21 November)

Date Brightness Start Highest point End Pass type
(mag) Time Alt. Az. Time Alt. Az. Time Alt. Az.
21 Nov ? 12:21:58 21° NE 12:21:58 21° NE 12:25:19 10° E visible
21 Nov ? 13:58:59 15° NW 14:02:39 44° NNE 14:07:08 10° E visible
22 Nov ? 12:37:12 28° N 12:38:00 30° NNE 12:42:08 10° E visible
22 Nov ? 14:14:29 10° WNW 14:19:05 50° N 14:23:38 10° E visible
23 Nov ? 11:15:21 14° ENE 11:15:21 14° ENE 11:16:36 10° ENE visible
23 Nov ? 12:52:22 26° NNW 12:54:20 39° NNE 12:58:45 10° E visible
23 Nov ? 14:30:56 10° WNW 14:35:32 51° N 14:40:06 10° ENE visible
24 Nov ? 11:30:24 24° NE 11:30:24 24° NE 11:33:37 10° E visible
24 Nov ? 13:07:23 17° WNW 13:10:45 47° N 13:15:18 10° E visible
24 Nov ? 14:47:25 10° W 14:51:58 46° N 14:56:28 10° ENE visible
25 Nov ? 11:45:13 32° N 11:46:03 34° NNE 11:50:20 10° E visible
25 Nov ? 13:22:34 10° WNW 13:27:11 51° N 13:31:46 10° ENE visible
26 Nov ? 10:22:41 19° NE 10:22:41 19° NE 10:25:01 10° E visible
26 Nov ? 11:59:37 21° NW 12:02:25 43° NNE 12:06:55 10° E visible
26 Nov ? 13:39:02 10° W 13:43:38 50° N 13:48:12 10° ENE visible
27 Nov ? 10:35:35 20° NNW 10:37:47 29° NNE 10:41:51 10° E visible
27 Nov ? 12:14:15 10° WNW 12:18:50 49° N 12:23:25 10° E visible
27 Nov ? 13:55:33 10° W 14:00:03 43° NNW 14:04:31 10° ENE visible
28 Nov ? 09:10:34 10° N 09:13:22 16° NE 09:16:12 10° ENE visible
28 Nov ? 10:49:43 10° NW 10:54:06 38° NNE 10:58:30 10° E visible
28 Nov ? 12:30:40 10° WNW 12:35:17 51° N 12:39:53 10° ENE visible
28 Nov ? 14:12:07 10° W 14:16:26 35° NNW 14:20:41 10° NE visible
29 Nov ? 09:25:48 10° NNW 09:29:32 24° NNE 09:33:19 10° E visible
29 Nov ? 11:05:57 10° WNW 11:10:29 46° N 11:15:03 10° E visible
29 Nov ? 12:47:08 10° W 12:51:43 48° N 12:56:16 10° ENE visible
29 Nov ? 14:28:49 10° W 14:32:42 25° NNW 14:36:34 10° NNE visible
30 Nov ? 09:41:36 10° NW 09:45:49 33° NNE 09:50:03 10° E visible
30 Nov ? 11:22:19 10° WNW 11:26:55 51° N 11:31:32 10° ENE visible
30 Nov ? 13:03:40 10° W 13:08:07 40° NNW 13:12:32 10° NE visible
30 Nov ? 14:45:48 10° WNW 14:48:54 17° NW 14:51:58 10° N visible
